map of GLH home
GLH - Airport
Location
City:  Greenville, Mississippi, United States
Name:Greenville Mid-Delta Airport
ICAO:KGLH
IATA:GLH
FAA LID:GLH

Details
Type:Airport (Part 139 Class I)
Use:Public/Civil
Latitude:3328'58"N (33.482881)
Longitude:9059'08"W (-90.985613)
Datum:WGS 1984
Elevation:130 ft (40 m)
Variation:0.52W (WMM2015 magnetic declination)
-0.10 annual change
Runways:2
Longest:8001 × 150 ft (2439 × 45.5 m), paved

Time
Time Zone:UTC-6 (DST-5)
Local Time:

Weather
METAR:KGLH 171734Z 00000KT 5SM OVC004 08/07 A3010 RMK AO2 T00830072
TAF:KGLH 171145Z 1712/1812 10008KT 4SM -RA BKN004 OVC050
FM171500 12005KT P6SM BKN012 BKN100
FM180300 36003KT 4SM BR OVC007

Related Locations
Nearby:
Farthest:MQZ: 10945 mi / 17615 km
Margaret River [Margaret River Airport], WA, AU

Find:

   beyond  
but within

Other Information
Maps:
Delays:
NOTAMs:
Links:
Sources:

  
flag of United States
flag of Mississippi
  

Airport Diagram

Airport diagram for GLH

Airport diagram PDF

Sectional Chart

Flight Planning
at skyvector.com

Satellite Image

Google Maps Satellite view

 

Copyright © 2004-2017 Karl L. Swartz. All rights reserved.
The Great Circle Mapper name and logo are trademarks of the Great Circle Mapper.
All other trademarks mentioned herein belong to their respective owners.
Please see credits for attibutions and further copyright information.

  Follow gcmap on Facebook Follow gcmap on Twitter Follow gcmap on Google+ GCmap on LinkedIn

hCard Microformat

Geo Microformat